Lid_Strength_Index
6 6 6 6 6 6 6 6 6 6 6 6 6 6 6 6 6 6 5 7 5 5 4 3 3 3 3 3 3 3 3 2 2 2 2 2 2 2 2 1 1 2 2
6 6 6 6 6 6 6 6 6 7 6 6 6 6 6 6 6 6 5 5 6 6 5 4 4 4 3 3 3 3 3 3 3 3 2 2 2 2 1 1 1 2 1
7 7 7 7 6 6 6 6 7 6 7 6 7 7 6 6 6 6 6 5 5 5 5 5 4 4 4 3 3 3 4 3 3 3 3 2 3 3 2 2 1 1 1
6 6 7 7 6 7 7 7 7 7 7 7 7 7 7 6 6 6 6 6 6 5 5 5 5 4 3 3 3 3 3 3 3 3 3 3 2 3 2 2 3 2 2
6 6 7 7 7 7 7 7 7 7 8 7 7 7 7 7 6 6 6 6 5 5 5 5 5 5 4 4 3 3 3 3 3 3 3 3 3 2 2 2 2 3 2
6 6 7 7 7 7 7 7 7 7 7 8 8 8 7 7 6 6 6 6 6 5 5 5 5 5 5 4 4 3 3 3 3 3 3 3 3 2 2 2 2 2 2
6 7 7 7 7 7 7 7 7 8 8 7 8 8 7 7 7 7 6 6 6 6 6 5 5 5 5 5 5 4 4 3 3 3 3 3 3 2 2 2 2 2 2
7 7 7 7 7 7 7 7 7 8 8 7 9 9 10 9 8 8 7 7 7 6 6 6 6 6 5 5 5 5 5 4 3 3 3 3 3 2 2 2 2 2 2
6 7 7 7 7 7 7 7 7 8 8 7 8 9 10 10 9 8 8 7 7 7 6 6 6 6 6 5 5 5 5 5 4 3 3 2 2 2 3 2 2 2 2
7 7 7 7 7 7 7 7 7 7 8 8 7 8 8 8 10 10 8 8 7 7 7 6 6 6 6 6 5 5 5 5 5 4 3 3 2 2 2 2 2 2 2
6 7 7 7 7 7 7 7 7 8 8 8 8 8 8 8 8 10 11 9 8 8 7 7 7 7 7 6 6 5 5 5 4 4 4 3 3 2 2 2 2 2 2
6 6 7 7 7 7 7 7 7 7 7 8 8 7 8 9 9 9 10 10 9 9 8 7 7 7 7 7 6 6 6 5 5 4 4 4 3 3 3 2 2 2 2
6 6 6 7 7 7 7 7 7 7 7 7 7 7 7 8 8 8 9 9 10 9 9 8 8 7 7 7 7 7 7 6 5 5 5 4 4 4 3 3 3 3 3
6 6 6 6 7 7 7 7 7 6 6 6 7 7 7 7 7 7 8 9 10 9 9 10 8 7 7 7 7 7 7 6 6 6 5 4 4 4 4 3 3 3 3
7 6 7 7 7 7 7 7 7 7 6 6 7 7 7 7 7 7 7 8 9 10 10 9 9 8 7 7 7 7 8 7 7 6 7 6 6 4 4 3 3 3 3
6 6 7 7 7 7 7 7 7 7 7 7 7 7 7 7 7 6 7 7 8 9 10 8 8 8 7 8 7 8 8 7 7 6 7 7 6 6 5 4 4 3 3
7 7 7 7 7 7 7 7 7 7 7 7 7 7 7 7 7 7 7 7 7 8 9 8 7 7 8 9 8 8 8 8 7 7 7 7 7 6 6 5 4 4 4
6 7 7 7 7 7 7 7 7 7 7 7 7 7 7 7 7 7 7 7 8 7 8 9 8 7 7 8 8 8 8 8 8 7 7 7 7 6 6 5 5 5 4
7 7 7 7 7 7 7 7 7 7 7 7 7 7 7 6 7 6 7 7 7 7 7 8 8 7 6 7 9 8 8 8 8 7 7 7 7 7 6 6 5 5 5
7 7 7 7 7 7 7 7 7 7 7 7 6 6 6 6 7 6 6 6 6 7 6 7 7 8 7 7 7 9 9 8 8 8 8 8 7 7 6 6 5 5 5
7 7 8 7 7 7 7 7 7 7 7 6 6 6 6 6 5 5 6 5 5 6 6 6 7 7 7 7 8 8 9 8 7 7 9 9 9 8 7 7 6 5 6
7 7 8 8 7 7 6 6 7 7 6 6 7 6 6 5 6 5 4 4 4 5 6 6 6 6 7 6 7 8 8 9 10 7 9 9 9 9 8 8 7 7 7
7 7 7 7 7 7 6 6 6 6 6 6 6 6 6 6 6 6 4 3 2 3 3 5 6 6 6 5 7 11 11 11 10 8 9 10 9 10 8 9 8 8 8
6 6 7 7 7 7 6 7 7 6 6 6 6 5 5 6 5 5 4 4 4 4 3 3 3 5 5 4 6 8 9 11 10 10 10 11 9 9 8 8 8 8 8
6 6 6 6 6 6 6 7 7 7 6 6 5 5 5 5 4 4 4 4 4 3 3 3 3 3 2 3 4 7 9 11 12 12 11 11 10 10 9 9 9 9 8
7 7 7 6 6 7 6 7 8 7 7 6 5 5 5 5 4 3 3 3 3 4 4 6 5 4 3 3 3 4 7 10 11 12 10 12 10 10 10 9 9 9 9